#timestamp,LO_Frequency,Hit,StdDev 
1539550815.5,286047002.7,P
1539550835.3,286047000.7,N
1539550855.1,286046999.9,N
1539550875.9,286047000.4,N
1539550895.7,286047002.1,N
1539550915.5,286047002.2,N
1539550935.4,286047002.6,N
1539550955.2,286047002.0,N
1539550975.0,286047001.9,N
1539550976.0,286047001.9,N
1539550995.8,286047001.7,N
1539551015.6,286047001.3,N
1539551035.5,286047002.9,Y
1539551055.3,286047001.5,P
1539551075.1,286047002.8,P
1539551095.9,286047000.0,N
1539551115.7,286047000.9,N
1539551135.6,286047000.3,N
1539551155.4,286047000.9,N
1539551175.2,286047000.3,N
1539551195.1,286047001.2,N
1539551196.0,286047001.2,N
1539551215.8,286047001.1,N
1539551235.7,286047000.0,N
1539551255.5,286047000.1,N
1539551275.3,286047002.8,Y
1539551295.2,286047002.5,P
1539551315.0,286047000.7,N
1539551315.9,286047000.7,N
1539551335.7,286047000.8,N
1539551355.6,286046998.8,N
1539551375.4,286046996.9,N
1539551395.3,286046996.9,N
1539551415.1,286047001.1,N
1539551435.8,286046999.0,N
1539551455.7,286046999.2,N
1539551475.5,286046999.3,N
1539551495.4,286046998.3,N
1539551515.2,286046998.6,N
1539551535.0,286046998.7,N
1539551535.9,286046998.7,N
1539551555.8,286046998.1,N
1539551575.6,286046997.1,N
1539551595.5,286046997.7,N
1539551615.3,286046996.6,N
1539551635.1,286046999.4,N
1539551655.9,286046998.7,N
1539551675.7,286046999.1,N
1539551695.5,286046996.6,N
1539551715.4,286046999.1,N
1539551735.2,286046999.5,N
1539551755.1,286046997.4,N
1539551756.0,286046997.4,N
1539551775.8,286046995.0,Y
1539551795.6,286046999.5,P
1539551815.5,286046999.2,N
1539551835.3,286046999.6,N
1539551855.1,286046999.0,Y
1539551875.9,286046998.7,P
1539551895.7,286046998.4,P
1539551915.6,286046999.0,N
1539551935.4,286046996.5,Y
1539551955.2,286046998.7,P
1539551975.1,286047001.2,P
1539551976.0,286047001.2,N
1539551995.8,286046999.3,N
1539552015.7,286046998.4,N
1539552035.5,286046999.5,N
1539552055.3,286046998.8,N
1539552075.2,286046999.3,N
1539552095.0,286046996.9,Y
1539552095.9,286046996.9,P
1539552115.7,286046999.4,N
1539552135.6,286046998.9,N
1539552155.4,286046998.9,N
1539552175.3,286046996.9,Y
1539552195.1,286046998.1,P
1539552215.8,286047001.2,P
1539552235.7,286047001.0,N
1539552255.5,286046998.1,N
1539552275.3,286047000.9,N
1539552295.2,286047000.9,N
1539552315.0,286046998.3,N
1539552315.9,286046998.3,N
1539552335.8,286046998.6,N
1539552355.6,286046998.1,N
1539552375.4,286046998.9,N
1539552395.3,286046998.7,N
1539552415.1,286046998.4,N
1539552435.8,286046998.9,N
1539552455.7,286046998.3,N
1539552475.5,286046999.3,N
1539552495.4,286046999.2,N
1539552515.2,286046997.2,N
1539552535.0,286046999.6,N
1539552535.9,286046999.6,N
1539552555.8,286046999.5,N
1539552575.6,286046996.8,Y
1539552595.5,286046998.9,P
1539552645.3,286047000.8,E
1539552655.2,286047001.2,N
1539552675.1,286046998.4,P
1539552676.0,286046998.4,N
1539552695.8,286046998.4,N
1539552715.7,286046999.3,N
1539552735.5,286046998.4,N
1539552755.3,286046999.3,N
1539552775.2,286046999.2,N
1539552795.0,286046997.2,Y
1539552795.9,286046997.2,P
1539552815.8,286046998.9,N
1539552835.6,286046998.3,N
1539552855.4,286046998.2,N
1539552875.3,286047001.1,N
1539552895.1,286046999.0,N
1539552896.0,286046999.0,N
1539552915.8,286046999.1,N
1539552935.7,286046999.1,N
1539552955.5,286046999.0,N
1539552975.4,286046999.2,N
1539552995.2,286046998.5,N
1539553015.0,286046998.1,N
1539553015.9,286046998.1,N
1539553035.8,286046999.5,N
1539553055.6,286047001.1,N
1539553075.4,286047001.1,N
1539553095.3,286047001.0,N
1539553115.1,286047001.2,N
1539553135.9,286046999.0,N
1539553155.7,286046999.3,N
1539553175.5,286046998.1,N
1539553195.4,286046998.4,N
1539553215.2,286046998.9,N
1539553235.0,286046997.1,N
1539553235.9,286046997.1,N
1539553255.8,286046997.2,N
1539553275.6,286046996.5,N
1539553295.5,286046996.9,N
1539553315.3,286046999.2,N
1539553335.1,286046998.0,N
1539553355.9,286046995.1,Y
1539553375.7,286046996.7,P
1539553395.6,286046996.9,N
1539553415.4,286046997.5,N
1539553435.2,286046996.7,Y
1539553455.1,286047001.0,P
1539553456.0,286047001.0,N
1539553475.8,286046998.4,N
1539553495.7,286046998.3,N
1539553515.5,286047001.0,N
1539553535.3,286046999.7,N
1539553555.2,286047002.2,N
1539553575.0,286047001.6,N
1539553575.9,286047001.6,N
1539553595.8,286047000.1,N
1539553615.6,286046999.8,N
1539553635.4,286047000.5,N
1539553655.3,286047002.4,N
1539553675.1,286047002.7,N
1539553695.8,286047000.7,N
1539553715.7,286047000.5,N
1539553735.5,286047000.3,N
1539553755.4,286046999.9,N
1539553775.2,286047002.6,N
1539553795.0,286047001.9,N
1539553795.9,286047001.9,N
1539553815.8,286047001.5,N
1539553835.6,286047001.9,N
1539553855.4,286047000.1,N
1539553875.3,286047000.2,N
1539553895.1,286047000.7,N
1539553915.9,286046999.7,N
1539553935.7,286047002.4,N
1539553955.5,286047001.0,N
1539553975.4,286046998.1,N
1539553995.2,286047000.0,N
1539554015.0,286047000.3,N
1539554015.9,286047000.3,N
1539554035.8,286047000.0,N
1539554055.6,286047001.0,N
1539554075.5,286046998.5,N
1539554095.3,286047000.9,N
1539554115.1,286047002.2,N
1539554135.9,286047000.2,N
1539554155.7,286047000.2,N
1539554175.5,286047000.2,N
1539554195.4,286046999.9,N
1539554215.2,286046998.1,N
1539554235.1,286047000.7,N
1539554236.0,286047000.7,N
1539554255.8,286046998.7,N
1539554275.6,286046999.4,N
1539554295.5,286046999.9,N
1539554315.3,286047000.6,N
1539554335.2,286047000.9,N
1539554355.9,286047002.4,N
1539554375.7,286047000.8,N
1539554395.6,286047001.0,N
